#timestamp,LO_Frequency,Hit,StdDev 
1557835215.3,286047001.0,N
1557835235.2,286047000.3,N
1557835255.0,286047000.5,N
1557835255.9,286047000.5,N
1557835275.8,286047002.6,N
1557835295.6,286047002.3,N
1557835315.4,286047000.2,N
1557835335.3,286047002.6,N
1557835355.1,286046999.8,N
1557835375.8,286047002.7,N
1557835395.7,286047002.0,N
1557835415.5,286047002.1,N
1557835435.4,286047000.6,N
1557835455.2,286046998.9,N
1557835475.0,286047002.8,N
1557835475.9,286047002.8,N
1557835495.8,286047002.4,N
1557835515.6,286047002.6,N
1557835535.5,286046998.4,N
1557835555.3,286046998.1,N
1557835575.1,286046998.6,N
1557835595.9,286046999.0,N
1557835615.7,286046998.6,N
1557835635.5,286047000.3,N
1557835655.4,286047002.5,N
1557835675.2,286047002.1,N
1557835695.0,286047004.3,N
1557835696.0,286047004.3,N
1557835715.8,286047002.7,N
1557835735.6,286047000.2,N
1557835755.5,286047002.1,N
1557835775.3,286047002.0,N
1557835795.1,286047002.8,N
1557835815.9,286047002.3,N
1557835835.7,286047000.5,N
1557835855.6,286046998.5,N
1557835875.4,286046997.9,N
1557835895.2,286046995.6,N
1557835915.1,286046995.2,N
1557835916.0,286046995.2,N
1557835935.8,286046995.4,N
1557835955.6,286046996.8,N
1557835975.5,286046996.9,N
1557835995.3,286046999.6,N
1557836015.2,286046997.0,N
1557836035.9,286046999.4,N
1557836055.7,286046999.3,N
1557836075.6,286046998.7,N
1557836095.4,286047002.3,N
1557836115.2,286047001.6,N
1557836135.1,286047004.2,N
1557836136.0,286047004.2,N
1557836155.8,286047002.6,N
1557836175.7,286047001.3,N
1557836195.5,286047001.7,N
1557836215.3,286047001.4,N
1557836235.2,286047002.5,N
1557836255.0,286046999.9,N
1557836255.9,286046999.9,N
1557836275.8,286046998.7,N
1557836295.6,286047001.2,N
1557836315.4,286046999.8,N
1557836335.3,286046999.9,N
1557836355.1,286046998.4,N
1557836375.8,286047000.8,N
1557836395.7,286046996.8,N
1557836415.5,286046995.3,N
1557836435.3,286046996.6,N
1557836455.2,286046998.4,N
1557836475.0,286047000.5,N
1557836475.9,286047000.5,N
1557836495.8,286047000.7,N
1557836515.6,286047000.3,N
1557836535.4,286047002.3,N
1557836555.3,286047002.2,N
1557836575.1,286047004.2,N
1557836595.8,286047002.7,N
1557836615.7,286047001.1,N
1557836635.5,286047000.8,N
1557836655.4,286047000.7,N
1557836675.2,286047001.1,N
1557836695.0,286046999.3,N
1557836695.9,286046999.3,N
1557836715.8,286046996.6,N
1557836735.6,286046998.5,N
1557836755.5,286047000.8,N
1557836775.3,286047000.8,N
1557836795.1,286047000.2,N
1557836815.9,286047000.4,N
1557836835.7,286047002.7,N
1557836855.5,286047000.3,N
1557836875.4,286046998.1,N
1557836895.2,286047002.8,N
1557836915.1,286047000.2,N
1557836916.0,286047000.2,N
1557836935.8,286047002.6,N
1557836955.6,286046999.7,N
1557836975.5,286046998.3,N
1557836995.3,286047000.6,N
1557837015.1,286047000.7,N
1557837035.9,286046998.2,N
1557837055.7,286046999.4,N
1557837075.6,286046999.1,N
1557837095.4,286046998.3,N
1557837115.2,286047000.1,N
1557837135.1,286046999.7,N
1557837136.0,286046999.7,N
1557837155.8,286046998.6,N
1557837175.7,286046996.5,N
1557837195.5,286046999.0,N
1557837215.3,286046996.5,N
1557837235.2,286046997.1,N
1557837255.9,286046997.9,N
1557837275.7,286046995.0,Y
1557837295.6,286046996.5,P
1557837315.4,286046996.8,N
1557837335.3,286046997.0,N
1557837355.1,286046996.6,N
1557837356.0,286046996.6,Y
1557837375.8,286047002.8,P
1557837395.7,286047000.0,N
1557837415.5,286047001.9,N
1557837435.3,286047001.5,N
1557837455.2,286047000.0,N
1557837475.0,286047002.1,N
1557837475.9,286047002.1,N
1557837495.8,286047000.3,N
1557837515.6,286046999.9,N
1557837535.4,286047002.0,N
1557837555.3,286047002.8,N
1557837575.1,286047004.1,N
1557837576.0,286047004.1,N
1557837595.8,286047004.2,N
1557837615.7,286047006.0,Y
1557837635.5,286047004.2,P
1557837655.3,286047003.5,N
1557837675.2,286047003.9,P
1557837695.2,286047002.5,N
1557837715.0,286047002.5,N
1557837716.0,286047002.5,N
1557837735.8,286046999.7,N
1557837755.6,286046999.8,N
1557837775.5,286047000.5,N
1557837795.3,286047000.0,N
1557837815.1,286046998.6,N
1557837835.9,286046998.5,N
1557837855.7,286046998.1,N
1557837875.5,286047000.6,N
1557837895.4,286047001.1,N
1557837915.2,286047002.0,N
1557837935.1,286047003.9,N
1557837936.0,286047003.9,N
1557837955.8,286047002.2,N
1557837975.6,286047002.4,N
1557837995.5,286047002.8,N
1557838015.3,286047004.4,N
1557838035.1,286047002.0,N
1557838055.9,286047002.2,N
1557838075.7,286047002.6,N
1557838095.6,286047000.2,N
1557838115.4,286047001.9,N
1557838135.2,286047001.4,N
1557838155.1,286047003.2,N
1557838156.0,286047003.2,N
1557838175.8,286047005.7,Y
1557838195.6,286047002.6,P
1557838215.5,286047011.9,P
1557838235.3,286047004.0,N
1557838255.2,286047004.3,N
1557838275.9,286047001.5,N
1557838295.7,286047002.5,N
1557838315.6,286047002.4,N
1557838335.4,286047001.8,N
1557838355.2,286047001.3,N
1557838375.1,286047002.4,N
1557838376.0,286047002.4,N
1557838395.8,286047000.9,N
1557838415.7,286046998.5,N
1557838435.5,286047000.0,N
1557838455.3,286047000.0,N
1557838475.2,286046998.5,N
1557838495.9,286046998.4,N
1557838515.7,286046998.2,N
1557838535.6,286046998.1,N
1557838555.4,286047000.3,N
1557838575.3,286047000.0,N
1557838595.1,286047001.6,N
1557838596.0,286047001.6,N
1557838615.8,286047002.5,N
1557838635.7,286047002.0,N
1557838655.5,286047000.4,N
1557838675.3,286046998.2,N
1557838695.2,286046998.7,N
1557838715.0,286046998.1,N
1557838715.9,286046998.1,N
1557838735.8,286046998.1,N
1557838755.6,286046999.0,N
1557838775.4,286046998.6,N
1557838795.3,286046998.6,N
